User: anonymous   Login
Location: Oakhurst
(33.6448°N, 111.9543°W)
Time: 02:27:47
(UTC+00:00)
Language:

ITAMSAT 1 - Orbit

View from above orbital plane
View from above orbital plane
View from above satellite
View from above satellite

Ground track
Ground track

The orbit data is extracted from the following two-line orbital elements,

1 22826U 93061D   21206.33023090  .00000003  00000-0  18974-4 0  9996
2 22826  98.9104 224.7779 0007844 272.2334  87.7950 14.30459670451642
Epoch (UTC): 25 July 2021 07:55:31
Eccentricity: 0.0007844
inclination: 98.9104°
perigee height: 784 km
apogee height: 796 km
right ascension of ascending node: 224.7779°
argument of perigee: 272.2334°
revolutions per day: 14.30459670
mean anomaly at epoch: 87.7950°
orbit number at epoch: 45164

The dashed part of the orbit path shows where the satellite is in the earth's shadow,  

DLR